Regional Weather Roundup
Issued by NWS

Home | Current Version | Previous Version | Text Only | Print | Product List | Glossary On
Versions: 1 2 3 4 5 6 7 8 9 10 11 12 13 14 15 16 17 18 19 20 21 22 23 24 25 26 27 28 29 30 31 32 33 34 35 36 37 38 39 40 41 42 43 44 45 46 47 48 49 50
000
ASUS44 KJAN 282220
RWRMS

MISSISSIPPI HOURLY WEATHER ROUNDUP
NATIONAL WEATHER SERVICE JACKSON MS
500 PM CDT THU JUL 28 2016

NOTE: "FAIR: INDICATES FEW OR NO CLOUDS BELOW 12,000 FEET WITH NO
SIGNIFICANT WEATHER AND/OR OBSTRUCTIONS TO VISIBILITY.

MSZ001>002-007>008-010>013-018>021-025>028-034>036-282300-
NORTHWEST MISSISSIPPI

CITY           SKY/WX    TMP DP  RH WIND       PRES   REMARKS
CLEVELAND      FAIR      79  79 100 SW9       29.95S
GREENWOOD      PTSUNNY   80  73  79 SW10      29.97F
GREENVILLE     CLOUDY    81  73  76 SW10      29.95F
OXFORD         PTSUNNY   82  73  74 SW12G20   29.97R
WINONA         CLOUDY    79  75  86 SW7       29.99R
$$

MSZ003>006-009-014>017-022>024-029>033-037>039-282300-
NORTHEAST MISSISSIPPI

CITY           SKY/WX    TMP DP  RH WIND       PRES   REMARKS
ABERDEEN       FAIR      82  64  54 SW7       29.98S
COLUMBUS AFB   NOT AVBL
GOLDN TRIANGLE PTSUNNY   88  72  58 W9        29.96F HX  94
TUPELO           N/A     83  72  69 MISG      29.94S
$$

MSZ040-058-282300-
CENTRAL MISSISSIPPI

CITY           SKY/WX    TMP DP  RH WIND       PRES   REMARKS
JACKSON INTL   CLOUDY    83  72  69 SW9       30.00F
JACKSON HAWKNS CLOUDY    82  72  71 W12       30.01F
MADISON        FAIR      81  72  74 SW6       30.00S
MERIDIAN KEY   CLOUDY    86  73  65 SW7       29.99F HX  93
MERIDIAN NAS   CLOUDY    88  70  55 W10       29.99S HX  93
VICKSBURG VKS  CLOUDY    81  73  78 SW6       30.00F
$$

MSZ059>079-282300-
SOUTH MISSISSIPPI

CITY           SKY/WX    TMP DP  RH WIND       PRES   REMARKS
COLUMBIA       MOCLDY    77  73  88 SW14G28   30.09R
HATTIESBURG    PTSUNNY   93  69  45 SW10      29.99S HX  98
MCCOMB         CLOUDY    75  71  87 CALM      30.04S
NATCHEZ        PTSUNNY   77  72  83 S6        30.02F
PINE BELT      PTSUNNY   84  73  70 NE7       30.02R HX  91
$$

MSZ080>082-282300-
COASTAL MISSISSIPPI

CITY           SKY/WX    TMP DP  RH WIND       PRES   REMARKS
BAY ST LOUIS   MOSUNNY   90  70  51 S9        29.99S HX  95
BILOXI         NOT AVBL
PASCAGOULA     SUNNY     89  74  60 VRB5      30.00S HX  98
GULFPORT       SUNNY     89  74  60 SW7       29.99S HX  98
$$

LAZ007>009-015>016-023>026-282300-
NORTHEAST LOUISIANA

CITY           SKY/WX    TMP DP  RH WIND       PRES   REMARKS
BASTROP        MOCLDY    76  75  98 SW5       29.99F
TALLULAH/VBURG CLOUDY    80  73  79 CALM      30.00F
VIDALIA        FAIR      77  72  84 S5        30.05F
$$




USA.gov is the U.S. government's official web portal to all federal, state and local government web resources and services.